| time (UTC) | temp F | wind direction | speed MPH | gust MPH | rain 1hr in | rain 24hr in | rain mn in | humidity % | barometer mb |
| 20260503192331 | 43 | 181 | 4.0 | 6.0 | 0.00 | 0.00 | 0.00 | 71 | 974.4 |
| 20260503191431 | 43 | 183 | 5.0 | 7.0 | 0.00 | 0.00 | 0.00 | 69 | 974.3 |
| 20260503190531 | 44 | 185 | 6.0 | 8.0 | 0.00 | 0.00 | 0.00 | 68 | 974.5 |
| 20260503185631 | 45 | 192 | 5.0 | 8.0 | 0.00 | 0.00 | 0.00 | 66 | 974.7 |
| 20260503184731 | 46 | 194 | 4.0 | 6.0 | 0.00 | 0.00 | 0.00 | 64 | 974.7 |
| 20260503183831 | 47 | 194 | 6.0 | 8.0 | 0.00 | 0.00 | 0.00 | 62 | 974.8 |
| 20260503182931 | 48 | 190 | 6.0 | 8.0 | 0.00 | 0.00 | 0.00 | 60 | 974.8 |
| 20260503181131 | 49 | 188 | 8.0 | 11.0 | 0.00 | 0.00 | 0.00 | 58 | 974.9 |
| 20260503180231 | 50 | 202 | 7.0 | 8.0 | 0.00 | 0.00 | 0.00 | 56 | 974.9 |
| 20260503175331 | 50 | 218 | 7.0 | 9.0 | 0.00 | 0.00 | 0.00 | 56 | 974.6 |
| 20260503174431 | 50 | 205 | 8.0 | 11.0 | 0.00 | 0.00 | 0.00 | 55 | 974.6 |
| 20260503173531 | 51 | 228 | 8.0 | 12.0 | 0.00 | 0.00 | 0.00 | 53 | 974.8 |
| 20260503171731 | 51 | 184 | 8.0 | 11.0 | 0.00 | 0.00 | 0.00 | 53 | 974.8 |
| 20260503150231 | 52 | 261 | 6.0 | 8.0 | 0.00 | 0.00 | 0.00 | 47 | 975.7 |
| 20260503130531 | 49 | 272 | 8.0 | 9.0 | 0.00 | 0.00 | 0.00 | 52 | 976.8 |
| 20260503090231 | 41 | 12 | 3.0 | 4.0 | 0.00 | 0.00 | 0.00 | 63 | 979.1 |
| 20260503080831 | 40 | 51 | 2.0 | 4.0 | 0.00 | 0.00 | 0.00 | 67 | 979.3 |
| 20260503072331 | 39 | 327 | 1.0 | 2.0 | 0.00 | 0.00 | 0.00 | 69 | 979.1 |
| 20260503071431 | 39 | 308 | 1.0 | 2.0 | 0.00 | 0.00 | 0.00 | 69 | 979.1 |
| 20260503070531 | 38 | 14 | 0.0 | 1.0 | 0.00 | 0.00 | 0.00 | 70 | 979.3 |
| 20260503060231 | 37 | 47 | 3.0 | 4.0 | 0.00 | 0.00 | 0.00 | 72 | 979.2 |
| 20260503054431 | 37 | 77 | 3.0 | 4.0 | 0.00 | 0.00 | 0.00 | 73 | 979.1 |
| 20260503053531 | 37 | 71 | 4.0 | 5.0 | 0.00 | 0.00 | 0.00 | 73 | 979.1 |
| 20260503052632 | 36 | 69 | 5.0 | 6.0 | 0.00 | 0.00 | 0.00 | 74 | 978.8 |
| 20260503051731 | 36 | 67 | 5.0 | 7.0 | 0.00 | 0.00 | 0.00 | 75 | 979.0 |
| 20260503050831 | 36 | 68 | 4.0 | 6.0 | 0.00 | 0.00 | 0.00 | 76 | 978.9 |
| 20260503045931 | 36 | 74 | 3.0 | 4.0 | 0.00 | 0.00 | 0.00 | 77 | 978.8 |
| 20260503045031 | 36 | 95 | 3.0 | 4.0 | 0.00 | 0.00 | 0.00 | 78 | 979.0 |
| 20260503044131 | 36 | 90 | 4.0 | 5.0 | 0.00 | 0.00 | 0.00 | 77 | 978.9 |
| 20260503043231 | 36 | 67 | 4.0 | 6.0 | 0.00 | 0.00 | 0.00 | 77 | 979.0 |
| 20260503042331 | 36 | 71 | 5.0 | 6.0 | 0.00 | 0.00 | 0.00 | 77 | 979.1 |
| 20260503041431 | 36 | 84 | 8.0 | 10.0 | 0.00 | 0.00 | 0.00 | 76 | 979.0 |
| 20260503040531 | 37 | 75 | 9.0 | 11.0 | 0.00 | 0.00 | 0.00 | 74 | 978.9 |
| 20260503035632 | 37 | 40 | 8.0 | 11.0 | 0.00 | 0.00 | 0.00 | 75 | 978.8 |
| 20260503033831 | 38 | 74 | 5.0 | 8.0 | 0.00 | 0.00 | 0.00 | 73 | 978.7 |
| 20260503032931 | 38 | 62 | 5.0 | 8.0 | 0.00 | 0.00 | 0.00 | 73 | 978.5 |
| 20260503032031 | 38 | 61 | 5.0 | 7.0 | 0.00 | 0.00 | 0.00 | 73 | 978.6 |
| 20260503031132 | 38 | 75 | 6.0 | 8.0 | 0.00 | 0.00 | 0.00 | 72 | 978.6 |
| 20260503030231 | 38 | 60 | 7.0 | 9.0 | 0.00 | 0.00 | 0.00 | 72 | 978.4 |
| 20260503025331 | 38 | 65 | 7.0 | 10.0 | 0.00 | 0.00 | 0.00 | 71 | 978.2 |
| 20260503024431 | 39 | 78 | 9.0 | 11.0 | 0.00 | 0.00 | 0.00 | 71 | 978.2 |
| 20260503023531 | 39 | 62 | 8.0 | 11.0 | 0.00 | 0.00 | 0.00 | 70 | 978.3 |
| 20260503022632 | 39 | 65 | 9.0 | 12.0 | 0.00 | 0.00 | 0.00 | 70 | 978.2 |
| 20260503021731 | 39 | 67 | 8.0 | 13.0 | 0.00 | 0.00 | 0.00 | 70 | 978.1 |
| 20260503020831 | 39 | 50 | 11.0 | 14.0 | 0.00 | 0.00 | 0.00 | 70 | 978.3 |
| 20260503015031 | 40 | 52 | 13.0 | 17.0 | 0.00 | 0.00 | 0.00 | 69 | 978.1 |
| 20260503014131 | 40 | 61 | 11.0 | 16.0 | 0.00 | 0.00 | 0.00 | 69 | 978.0 |
| 20260503013231 | 40 | 38 | 11.0 | 16.0 | 0.00 | 0.00 | 0.00 | 69 | 978.0 |
| 20260503011431 | 40 | 42 | 10.0 | 14.0 | 0.00 | 0.00 | 0.00 | 69 | 978.0 |
| 20260503010531 | 40 | 41 | 9.0 | 10.0 | 0.00 | 0.00 | 0.00 | 70 | 978.0 |
| 20260503005632 | 40 | 56 | 8.0 | 11.0 | 0.00 | 0.00 | 0.00 | 70 | 977.8 |
| 20260503004731 | 41 | 55 | 9.0 | 11.0 | 0.00 | 0.00 | 0.00 | 71 | 977.8 |
| 20260503002931 | 41 | 51 | 11.0 | 14.0 | 0.00 | 0.00 | 0.00 | 72 | 977.7 |
| 20260503002031 | 41 | 67 | 10.0 | 13.0 | 0.00 | 0.00 | 0.00 | 72 | 977.6 |
| 20260503001132 | 41 | 25 | 8.0 | 11.0 | 0.00 | 0.00 | 0.00 | 72 | 977.5 |
| 20260503000233 | 41 | 38 | 9.0 | 12.0 | 0.00 | 0.00 | 0.00 | 72 | 977.4 |
| 20260502235331 | 42 | 57 | 10.0 | 12.0 | 0.00 | 0.00 | 0.00 | 73 | 977.4 |
| 20260502234431 | 42 | 50 | 10.0 | 14.0 | 0.00 | 0.00 | 0.00 | 73 | 977.3 |
| 20260502233531 | 42 | 46 | 10.0 | 15.0 | 0.00 | 0.00 | 0.00 | 73 | 977.1 |
| 20260502232632 | 42 | 88 | 12.0 | 15.0 | 0.00 | 0.00 | 0.00 | 73 | 977.2 |
| 20260502230831 | 42 | 46 | 13.0 | 13.0 | 0.00 | 0.00 | 0.00 | 72 | 976.9 |
| 20260502225931 | 43 | 62 | 14.0 | 21.0 | 0.00 | 0.00 | 0.00 | 71 | 976.9 |
| 20260502225031 | 43 | 59 | 13.0 | 19.0 | 0.00 | 0.00 | 0.00 | 71 | 976.4 |
| 20260502224131 | 44 | 45 | 13.0 | 20.0 | 0.00 | 0.00 | 0.00 | 71 | 976.5 |
| 20260502223231 | 44 | 63 | 17.0 | 24.0 | 0.00 | 0.00 | 0.00 | 71 | 976.4 |
| 20260502222331 | 45 | 62 | 14.0 | 24.0 | 0.00 | 0.00 | 0.00 | 71 | 976.3 |
| 20260502221431 | 46 | 55 | 13.0 | 17.0 | 0.00 | 0.00 | 0.00 | 71 | 976.3 |
| 20260502220531 | 46 | 47 | 16.0 | 22.0 | 0.00 | 0.00 | 0.00 | 70 | 976.2 |
| 20260502215632 | 47 | 34 | 18.0 | 23.0 | 0.00 | 0.00 | 0.00 | 70 | 976.1 |
| 20260502214731 | 47 | 38 | 18.0 | 22.0 | 0.00 | 0.00 | 0.00 | 71 | 975.9 |
| 20260502213831 | 49 | 47 | 18.0 | 21.0 | 0.00 | 0.00 | 0.00 | 71 | 975.8 |
| 20260502212931 | 49 | 23 | 14.0 | 21.0 | 0.00 | 0.00 | 0.00 | 70 | 975.6 |
| 20260502211131 | 49 | 343 | 3.0 | 5.0 | 0.00 | 0.00 | 0.00 | 71 | 975.4 |
| 20260502210231 | 50 | 196 | 2.0 | 3.0 | 0.00 | 0.00 | 0.00 | 71 | 975.1 |
| 20260502205331 | 50 | 223 | 3.0 | 4.0 | 0.00 | 0.00 | 0.00 | 70 | 975.0 |
| 20260502204431 | 50 | 260 | 3.0 | 4.0 | 0.00 | 0.00 | 0.00 | 70 | 975.0 |
| 20260502203531 | 50 | 211 | 4.0 | 5.0 | 0.00 | 0.00 | 0.00 | 70 | 974.8 |
| 20260502202632 | 50 | 191 | 4.0 | 5.0 | 0.00 | 0.00 | 0.00 | 70 | 974.8 |
| 20260502200831 | 50 | 224 | 2.0 | 4.0 | 0.00 | 0.00 | 0.00 | 70 | 974.9 |
| 20260502195931 | 50 | 240 | 3.0 | 6.0 | 0.00 | 0.00 | 0.00 | 69 | 974.9 |
| 20260502195031 | 50 | 222 | 4.0 | 6.0 | 0.00 | 0.00 | 0.00 | 69 | 974.8 |
| 20260502194131 | 50 | 232 | 5.0 | 7.0 | 0.00 | 0.00 | 0.00 | 68 | 974.8 |
| 20260502193231 | 51 | 231 | 5.0 | 7.0 | 0.00 | 0.00 | 0.00 | 68 | 974.7 |